Location: Madrid
(40.4000°N, 3.6830°W)
Time: 00:15:16
(UTC+02:00)

ISS - Pass Details

Date: 23 May 2019
Orbit: 408 x 418 km, 51.6° (Epoch: 26 May)

Event Time Altitude Azimuth Distance (km) Brightness Sun altitude
Rises 23:24:33 0° 290° (WNW) 2,348 1.1 -17.6°
Reaches altitude 10° 23:27:27 10° 318° (NW) 1,490 0.3 -18.0°
Maximum altitude 23:29:15 14° 350° (N) 1,289 -0.5 -18.2°
Drops below altitude 10° 23:31:02 10° 23° (NNE) 1,494 -0.6 -18.4°
Sets 23:33:58 0° 50° (NE) 2,360 0.1 -18.8°
